Regional Weather Roundup
Issued by NWS

Home | Current Version | Previous Version | Graphics & Text | Print | Product List | Glossary On
Versions: 1 2 3 4 5 6 7 8 9 10 11 12 13 14 15 16 17 18 19 20 21 22 23 24 25 26 27 28 29 30 31 32 33 34 35 36 37 38 39 40 41 42 43 44 45 46 47 48 49 50
000
ASUS45 KABQ 221501
RWRNM
NEW MEXICO REGIONAL WEATHER ROUNDUP
NATIONAL WEATHER SERVICE ALBUQUERQUE NM
800 AM MST MON JAN 22 2018

NOTE: "FAIR" MEANS FEW OR NO CLOUDS BELOW 12,000 FEET AGL WITH NO
       SIGNIFICANT WEATHER OR OBSTRUCTIONS TO VISION.

      THIS PRODUCT IS RELEASED AS TWO VERSIONS.  ONE VERSION NEAR
      THE TOP OF THE HOUR CONTAINING PRELIMINARY DATA FROM ALBUQUERQUE
      AND OTHER STATIONS.  A FINAL VERSION WITH ADDITIONAL DATA IS
      ISSUED ABOUT 10 MINUTES AFTER THE HOUR.

NMZ501-503-504-510>518-221600-
NORTHWEST PLATEAU/NORTHCENTRAL MOUNTAINS

CITY           SKY/WX    TMP DP  RH WIND       PRES   REMARKS
FARMINGTON     FAIR      18  11  74 VRB3      30.24R
LOS ALAMOS     FAIR      17   6  62 NE8       30.14R WCI   7
SANTA FE       FAIR      16  10  77 N12       30.15R WCI   3
TAOS           FAIR       0  -3  87 E8        30.19R WCI -14
ANGEL FIRE     FAIR      -4  -7  87 S3        30.11R

$$
NMZ402-403-502-505>509-221600-
WESTCENTRAL MOUNTAINS/SOUTHWEST MOUNTAINS

CITY           SKY/WX    TMP DP  RH WIND       PRES   REMARKS
GALLUP         FAIR      -4  -9  79 E3        30.25R
GRANTS         FAIR      10   5  79 NW5       30.24R WCI   2
SILVER CITY    FAIR      20   8  60 N8        30.22S WCI  11

$$
NMZ407-409-411-412-221600-
SOUTHERN DESERTS

CITY           SKY/WX    TMP DP  RH WIND       PRES   REMARKS
DEMING         FAIR      22  12  65 SW6       30.24S WCI  14
LAS CRUCES     FAIR      31   6  35 N8        30.25R WCI  23
HOLLOMAN AFB   FAIR      26   6  42 N9        30.26R WCI  17
ALAMOGORDO     FAIR      32   5  32 N10       30.24R WCI  24
T OR C         FAIR      31   7  36 NW17      30.23R WCI  19

$$
NMZ519>523-221600-
CENTRAL VALLEYS/CENTRAL HIGHLANDS

CITY           SKY/WX    TMP DP  RH WIND       PRES   REMARKS
ALBUQUERQUE    FAIR      25  10  53 N15G23    30.22R WCI  13
DOUBLE EAGLE   CLEAR     19   9  63 NW12      30.20R WCI   7
MORIARTY ARPT  FAIR      23  11  60 N22       30.15R WCI   7
CLINES CORNERS FAIR      16   7  67 NW26G36   30.08  WCI  -3
BELEN          FAIR      18   8  63 N6        30.24R WCI  10
SOCORRO        FAIR      30   4  33 N6        30.24R WCI  24

$$
NMZ524>526-539-540-221600-
SOUTHCENTRAL MOUNTAINS

CITY           SKY/WX    TMP DP  RH WIND       PRES   REMARKS
RUIDOSO        NOT AVBL

$$
NMZ527>531-221600-
NORTHEAST HIGHLANDS/NORTHEAST PLAINS

CITY           SKY/WX    TMP DP  RH WIND       PRES   REMARKS
LAS VEGAS      FAIR      22   2  42 N13       30.04R WCI  10
RATON          FAIR      19   7  59 CALM      30.01R
CLAYTON        FAIR      25   9  50 W12       30.00R WCI  14

$$
NMZ532>537-221600-
EASTCENTRAL PLAINS

CITY           SKY/WX    TMP DP  RH WIND       PRES   REMARKS
TUCUMCARI      FAIR      26  17  68 W9        30.07R WCI  17
CANNON AFB     FAIR      24  16  71 CALM      30.10R
CLOVIS AIRPORT FAIR      22  14  71 W7        30.10R WCI  13

$$
NMZ028-029-538-221600-
SOUTHEAST PLAINS

CITY           SKY/WX    TMP DP  RH WIND       PRES   REMARKS
ROSWELL        FAIR      41   6  23 NW15G21   30.14R
ARTESIA        FAIR      34   5  29 W10       30.16R WCI  26
CARLSBAD       FAIR      36  10  34 W5        30.15R WCI  32
HOBBS          SUNNY     36   9  32 W15       30.15R WCI  26


$$




USA.gov is the U.S. government's official web portal to all federal, state and local government web resources and services.